This is the latest recevied weather packets stored in our database for station/object SV9TNF-2. If no packets are shown the sender has not sent any weather packets the latest 1 day(s).
| Time | Temp. | Humidity | Pressure | Rain* | Wind** | Luminosity | Snow |
|---|---|---|---|---|---|---|---|
| 1778041820 | 16.67° C | 46% | 1022.4 hPa | 0 mm | 5.36 m/s, 226° | - | - |
| 1778041220 | 15.56° C | 46% | 1022.4 hPa | 0 mm | 4.92 m/s, 208° | - | - |
| 1778040920 | 15.56° C | 45% | 1022.4 hPa | 0 mm | 7.6 m/s, 223° | - | - |
| 1778040620 | 15.56° C | 46% | 1022.4 hPa | 0 mm | 8.05 m/s, 142° | - | - |
| 1778039719 | 14.44° C | 48% | 1022.4 hPa | 0 mm | 7.6 m/s, 272° | - | - |
| 1778039419 | 13.89° C | 49% | 1022.4 hPa | 0 mm | 6.26 m/s, 243° | - | - |
| 1778039119 | 13.89° C | 50% | 1022.4 hPa | 0 mm | 6.26 m/s, 220° | - | - |
| 1778038819 | 13.89° C | 50% | 1022.4 hPa | 0 mm | 6.71 m/s, 217° | - | - |
| 1778038519 | 13.89° C | 49% | 1022.4 hPa | 0 mm | 6.71 m/s, 197° | - | - |
| 1778038219 | 13.89° C | 49% | 1022.4 hPa | 0 mm | 6.26 m/s, 177° | - | - |
| 1778037618 | 13.89° C | 48% | 1022 hPa | 0 mm | 6.71 m/s, 250° | - | - |
| 1778037018 | 13.89° C | 50% | 1022 hPa | 0 mm | 5.81 m/s, 155° | - | - |
| 1778036718 | 13.89° C | 49% | 1022 hPa | 0 mm | 8.05 m/s, 238° | - | - |
| 1778036418 | 13.89° C | 49% | 1022 hPa | 0 mm | 8.94 m/s, 113° | - | - |
| 1778036118 | 13.89° C | 49% | 1022 hPa | 0 mm | 9.39 m/s, 232° | - | - |
| 1778035518 | 13.89° C | 50% | 1022.4 hPa | 0 mm | 8.05 m/s, 239° | - | - |
| 1778035218 | 13.89° C | 49% | 1022.4 hPa | 0 mm | 7.6 m/s, 253° | - | - |
| 1778034918 | 13.89° C | 49% | 1022.4 hPa | 0 mm | 8.05 m/s, 205° | - | - |
| 1778034618 | 14.44° C | 48% | 1022.4 hPa | 0 mm | 8.94 m/s, 303° | - | - |
| 1778034317 | 14.44° C | 48% | 1022.4 hPa | 0 mm | 8.94 m/s, 180° | - | - |
| 1778034017 | 14.44° C | 49% | 1022.4 hPa | 0 mm | 8.94 m/s, 197° | - | - |
| 1778033717 | 13.89° C | 50% | 1022.4 hPa | 0 mm | 8.05 m/s, 251° | - | - |
| 1778033117 | 14.44° C | 48% | 1022.4 hPa | 0 mm | 8.49 m/s, 220° | - | - |
| 1778032817 | 14.44° C | 47% | 1022.4 hPa | 0 mm | 7.15 m/s, 163° | - | - |
| 1778032517 | 14.44° C | 49% | 1022.4 hPa | 0 mm | 4.92 m/s, 244° | - | - |
* Rain latest hour (hover to see other rain measurements)
** Current wind speed in m/s (hover to see current wind gust speed)